User: anonymous   Login
Location: Newark
(28.4500°N, 16.2500°W)
Time: 04:50:00
(UTC+00:00)
Language:

JY1SAT - Orbit

View from above orbital plane
View from above orbital plane
View from above satellite
View from above satellite

Ground track
Ground track

The orbit data is extracted from the following two-line orbital elements,

1 43803U 18099AX  19258.83937719 -.00000107  00000-0 -44034-5 0  9997
2 43803  97.7364 329.6556 0016061  36.3585 323.8724 14.95313855 42746
Epoch (UTC): 15 September 2019 20:08:42
Eccentricity: 0.0016061
inclination: 97.7364°
perigee height: 570 km
apogee height: 592 km
right ascension of ascending node: 329.6556°
argument of perigee: 36.3585°
revolutions per day: 14.95313855
mean anomaly at epoch: 323.8724°
orbit number at epoch: 4274

The dashed part of the orbit path shows where the satellite is in the earth's shadow,  

DLR